Ashland, WI

10:47 AM CST on December 16, 2017 (GMT -0600)
Kennedy Memorial

Weather History for KASX - April, 2013

Change the Weather History Date:

Sunday, April 14, 2013

  Actual Average Record
Temperature  
Mean Temperature 24 °F -  
Max Temperature 37 °F 48 °F 87 °F (2003)
Min Temperature 10 °F 29 °F 6 °F (1950)
Degree Days  
Heating Degree Days 42    
Moisture  
Dew Point 26 °F    
Average Humidity 85    
Maximum Humidity 96    
Minimum Humidity 61    
Precipitation  
Precipitation 0.00 in - - ()
Sea Level Pressure  
Sea Level Pressure 29.84 in    
Wind  
Wind Speed 9 mph (ENE)    
Max Wind Speed 18 mph    
Max Gust Speed 28 mph    
Visibility 5 miles    
Events Fog , Rain , Snow    
Averages and records for this station are not official NWS values.
T = Trace of Precipitation, MM = Missing Value Source: NWS Daily Summary

Daily Weather History Graph

Daily Weather History Graph

Search for Another Location

Airport or City:

Trip Planner

Search our weather history database for the weather conditions in past years. The results will help you decide how hot, cold, wet, or windy it might be!

Date:

Astronomy

Apr. 14, 2013 Rise Set
Actual Time 6:17 AM CDT 7:50 PM CDT
Civil Twilight 5:46 AM CDT 8:22 PM CDT
Nautical Twilight 5:08 AM CDT 9:00 PM CDT
Astronomical Twilight 4:26 AM CDT 9:42 PM CDT
Moon 8:44 AM CDT (4/14) No Moon Set
Length of Visible Light 14h 35m
Length of Day
13h 32m
Waxing Crescent, 17% of the Moon is Illuminated
Apr 14
Waxing Crescent
Apr 18
First Quarter
Apr 25
Full
May 2
Last Quarter
May 9
New

Hourly Weather History & Observations

Time (CDT) Temp. Windchill Dew Point Humidity Pressure Visibility Wind Dir Wind Speed Gust Speed Precip Events Conditions
12:53 AM 21.0 °F 16.2 °F 17.1 °F 85% 30.03 in 10.0 mi WSW 3.5 mph - N/A   Clear
1:53 AM 19.0 °F 13.9 °F 16.0 °F 88% 30.03 in 10.0 mi WSW 3.5 mph - N/A   Clear
2:53 AM 16.0 °F 10.4 °F 12.9 °F 88% 30.03 in 10.0 mi WSW 3.5 mph - N/A   Clear
3:53 AM 18.0 °F 12.7 °F 15.1 °F 88% 30.01 in 10.0 mi WSW 3.5 mph - N/A   Clear
4:07 AM 17.6 °F - 14.0 °F 86% 29.96 in 1.5 mi Calm Calm - N/A   Clear
4:18 AM 12.2 °F - 10.4 °F 92% 29.96 in 4.0 mi Calm Calm - N/A   Clear
4:53 AM 10.9 °F - 7.0 °F 84% 30.02 in 10.0 mi Calm Calm - N/A   Clear
5:53 AM 12.9 °F 3.8 °F 9.0 °F 84% 30.04 in 10.0 mi South 5.8 mph - N/A   Clear
6:53 AM 16.0 °F - 14.0 °F 92% 30.04 in 10.0 mi Calm Calm - N/A   Clear
7:53 AM 21.9 °F - 19.9 °F 92% 30.04 in 10.0 mi Calm Calm - N/A   Clear
8:53 AM 30.0 °F - 21.9 °F 72% 30.03 in 10.0 mi Calm Calm - N/A   Clear
9:53 AM 34.0 °F 28.0 °F 21.9 °F 61% 30.01 in 10.0 mi East 6.9 mph - N/A   Clear
10:53 AM 34.0 °F 26.0 °F 24.1 °F 67% 29.97 in 10.0 mi North 10.4 mph - N/A   Clear
11:53 AM 36.0 °F 27.5 °F 26.1 °F 67% 29.95 in 10.0 mi NNE 12.7 mph - N/A   Clear
12:53 PM 37.0 °F 28.1 °F 26.1 °F 65% 29.93 in 10.0 mi NE 15.0 mph - N/A   Overcast
1:53 PM 36.0 °F 26.0 °F 25.0 °F 64% 29.94 in 10.0 mi ENE 17.3 mph - N/A   Overcast
2:53 PM 37.0 °F 27.7 °F 26.1 °F 65% 29.91 in 10.0 mi ENE 16.1 mph 23.0 mph N/A   Overcast
3:53 PM 36.0 °F 25.6 °F 26.1 °F 67% 29.87 in 10.0 mi ENE 18.4 mph 26.5 mph N/A   Overcast
4:53 PM 34.0 °F 23.8 °F 28.0 °F 79% 29.87 in 2.5 mi ENE 16.1 mph 26.5 mph 0.00 in Snow Light Snow
5:00 PM 33.8 °F 23.5 °F 28.4 °F 81% 29.82 in 0.8 mi ENE 16.1 mph 27.6 mph 0.00 in Snow Light Snow
5:19 PM 33.8 °F 23.9 °F 30.2 °F 87% 29.83 in 0.5 mi ENE 15.0 mph - 0.00 in Fog , Snow Snow
5:23 PM 32.0 °F 22.1 °F 30.2 °F 93% 29.83 in 0.2 mi ENE 13.8 mph - 0.00 in Fog , Snow Heavy Snow
5:53 PM 32.0 °F 23.0 °F 30.0 °F 92% 29.85 in 0.2 mi ENE 11.5 mph - 0.00 in Fog , Snow Heavy Snow
6:18 PM 33.8 °F 25.8 °F 30.2 °F 87% 29.80 in 0.5 mi ENE 10.4 mph - 0.00 in Fog , Snow Snow
6:25 PM 33.8 °F 25.8 °F 30.2 °F 87% 29.79 in 0.5 mi ENE 10.4 mph - 0.00 in Fog , Snow Snow
6:53 PM 33.1 °F 24.4 °F 30.9 °F 92% 29.82 in 0.8 mi ENE 11.5 mph - 0.00 in Snow Light Snow
7:13 PM 33.8 °F 25.3 °F 30.2 °F 87% 29.77 in 1.2 mi ENE 11.5 mph - 0.00 in Snow Light Snow
7:39 PM 33.8 °F 24.8 °F 30.2 °F 87% 29.76 in 0.5 mi ENE 12.7 mph - 0.00 in Fog , Snow Snow
7:53 PM 33.1 °F 23.4 °F 30.9 °F 92% 29.79 in 0.8 mi ENE 13.8 mph - 0.00 in Snow Light Snow
8:32 PM 33.8 °F 22.8 °F 30.2 °F 87% 29.72 in 2.0 mi ENE 18.4 mph 27.6 mph 0.00 in   Overcast
8:37 PM 33.8 °F 23.2 °F 30.2 °F 87% 29.72 in 3.0 mi ENE 17.3 mph 27.6 mph 0.00 in   Overcast
8:43 PM 33.8 °F 23.2 °F 30.2 °F 87% 29.71 in 3.0 mi ENE 17.3 mph - N/A Rain Light Freezing Rain
8:53 PM 33.1 °F 21.9 °F 30.0 °F 89% 29.75 in 3.0 mi NE 18.4 mph 26.5 mph N/A Rain Light Freezing Rain
9:00 PM 32.0 °F 21.2 °F 30.2 °F 93% 29.72 in 3.0 mi ENE 16.1 mph - N/A Rain Light Freezing Rain
9:15 PM 32.0 °F 20.8 °F 30.2 °F 93% 29.72 in 5.0 mi ENE 17.3 mph - N/A Snow Light Snow
9:30 PM 32.0 °F 21.2 °F 30.2 °F 93% 29.72 in 2.0 mi ENE 16.1 mph - N/A Snow Light Snow
9:51 PM 32.0 °F 21.2 °F 30.2 °F 93% 29.72 in 1.5 mi ENE 16.1 mph - N/A Snow Light Snow
9:53 PM 32.0 °F 21.6 °F 30.0 °F 92% 29.75 in 1.5 mi ENE 15.0 mph - N/A Snow Light Snow
10:04 PM 32.0 °F 22.1 °F 30.2 °F 93% 29.73 in 2.0 mi ENE 13.8 mph - N/A Snow Light Snow
10:37 PM 32.0 °F 22.1 °F 30.2 °F 93% 29.71 in 1.2 mi ENE 13.8 mph - N/A Snow Light Snow
10:51 PM 32.0 °F 20.5 °F 30.2 °F 93% 29.70 in 1.2 mi ENE 18.4 mph - N/A Snow Light Snow
10:53 PM 32.0 °F 21.6 °F 30.9 °F 96% 29.73 in 1.5 mi ENE 15.0 mph - N/A Snow Light Snow
11:16 PM 32.0 °F 20.8 °F 30.2 °F 93% 29.69 in 2.0 mi ENE 17.3 mph 23.0 mph N/A Snow Light Snow
11:24 PM 33.8 °F 23.9 °F 30.2 °F 87% 29.68 in 1.5 mi ENE 15.0 mph - N/A Snow Light Snow
11:34 PM 32.0 °F 22.5 °F 30.2 °F 93% 29.68 in 3.0 mi ENE 12.7 mph - N/A Snow Light Snow
11:53 PM 33.1 °F 23.9 °F 30.9 °F 92% 29.70 in 9.0 mi ENE 12.7 mph - N/A   Overcast